,,,PA_Meas_PMT16A,,PR_Meas_QMR101_102,,RH_Meas_QMH101,,SR_Meas_QMS101,,TA_Meas_QMH101,,GenWind,,GenWind,
date,time,status,PA,status,PR,status,RH,status,SR,status,TA,status,DirAvg,status,SpdAvg,
2008-08-04, 06:34:04,VALID,1005.48,VALID,0,VALID,91.1651,VALID,50.1809,VALID,24.9904,VALID,58,VALID,0.212109,
2008-08-04, 06:35:04,VALID,1005.47,VALID,0,VALID,90.8066,VALID,50.4826,VALID,25.0488,VALID,59,VALID,0.102734,
2008-08-04, 06:36:04,VALID,1005.52,VALID,0,VALID,90.6387,VALID,50.6837,VALID,25.0858,VALID,59,VALID,0,
2008-08-04, 06:37:04,VALID,1005.56,VALID,0,VALID,90.0666,VALID,50.5832,VALID,25.1851,VALID,71,VALID,0.520703,
2008-08-04, 06:38:04,VALID,1005.6,VALID,0,VALID,89.7843,VALID,50.4826,VALID,25.263,VALID,70,VALID,0.2375,
2008-08-04, 06:39:04,VALID,1005.63,VALID,0,VALID,89.5097,VALID,50.0803,VALID,25.2825,VALID,70,VALID,0.279687,
2008-08-04, 06:40:04,VALID,1005.69,VALID,0,VALID,89.1282,VALID,49.9798,VALID,25.3409,VALID,62,VALID,0.658594,
2008-08-04, 06:41:04,VALID,1005.7,VALID,0,VALID,88.907,VALID,50.2815,VALID,25.3993,VALID,40,VALID,0.423047,
2008-08-04, 06:42:04,VALID,1005.75,VALID,0,VALID,88.7391,VALID,51.3877,VALID,25.4188,VALID,45,VALID,0.390234,
2008-08-04, 06:43:04,VALID,1005.75,VALID,0,VALID,88.5866,VALID,53.0972,VALID,25.4169,VALID,65,VALID,0.598828,
2008-08-04, 06:44:04,VALID,1005.75,VALID,0,VALID,88.4569,VALID,53.8012,VALID,25.4792,VALID,48,VALID,0.49375,
2008-08-04, 06:45:04,VALID,1005.76,VALID,0,VALID,88.0602,VALID,54.7062,VALID,25.5162,VALID,71,VALID,0.635547,
2008-08-04, 06:46:04,VALID,1005.76,VALID,0,VALID,87.7245,VALID,55.913,VALID,25.5551,VALID,77,VALID,0.956641,
2008-08-04, 06:47:04,VALID,1005.75,VALID,0,VALID,87.6558,VALID,56.8181,VALID,25.635,VALID,26,VALID,0.762891,
2008-08-04, 06:48:04,VALID,1005.76,VALID,0,VALID,87.4499,VALID,56.3153,VALID,25.6525,VALID,41,VALID,0.494531,
2008-08-04, 06:49:04,VALID,1005.78,VALID,0,VALID,87.4422,VALID,56.0136,VALID,25.6525,VALID,35,VALID,0.485156,
2008-08-04, 06:50:04,VALID,1005.78,VALID,0,VALID,87.015,VALID,52.7955,VALID,25.6915,VALID,26,VALID,0.725,
2008-08-04, 06:51:04,VALID,1005.81,VALID,0,VALID,87.1142,VALID,56.7175,VALID,25.7109,VALID,92,VALID,0.827344,
2008-08-04, 06:52:04,VALID,1005.84,VALID,0,VALID,86.9769,VALID,53.7006,VALID,25.7519,VALID,44,VALID,0.908203,
2008-08-04, 06:53:04,VALID,1005.83,VALID,0,VALID,86.9769,VALID,55.1085,VALID,25.7304,VALID,80,VALID,0.64375,
2008-08-04, 06:54:04,VALID,1005.83,VALID,0,VALID,86.5725,VALID,55.8124,VALID,25.7694,VALID,54,VALID,0.886328,
2008-08-04, 06:55:04,VALID,1005.83,VALID,0,VALID,86.6183,VALID,56.5164,VALID,25.7889,VALID,68,VALID,0.733984,
2008-08-04, 06:56:04,VALID,1005.85,VALID,0,VALID,86.4352,VALID,57.4214,VALID,25.8298,VALID,88,VALID,0.880859,
2008-08-04, 06:57:04,VALID,1005.86,VALID,0,VALID,86.3742,VALID,59.2316,VALID,25.8278,VALID,74,VALID,1.00742,
2008-08-04, 06:58:04,VALID,1005.87,VALID,0,VALID,86.2445,VALID,58.0248,VALID,25.8278,VALID,70,VALID,1.09883,
2008-08-04, 06:59:04,VALID,1005.89,VALID,0,VALID,86.6488,VALID,58.6282,VALID,25.8863,VALID,40,VALID,0.480078,
2008-08-04, 07:00:04,VALID,1005.94,VALID,0,VALID,86.2216,VALID,59.4327,VALID,25.9057,VALID,86,VALID,0.93125,
2008-08-04, 07:01:04,VALID,1005.95,VALID,0,VALID,86.3589,VALID,60.1366,VALID,25.9447,VALID,7,VALID,0.600391,
2008-08-04, 07:02:04,VALID,1005.96,VALID,0,VALID,86.3208,VALID,60.3378,VALID,25.9642,VALID,92,VALID,0.676172,
2008-08-04, 07:03:04,VALID,1005.95,VALID,0,VALID,85.9546,VALID,60.8406,VALID,25.9836,VALID,62,VALID,0.982422,
2008-08-04, 07:04:04,VALID,1005.95,VALID,0,VALID,86.1301,VALID,65.4665,VALID,25.9836,VALID,23,VALID,0.976953,
2008-08-04, 07:05:04,VALID,1005.94,VALID,0,VALID,86.3513,VALID,79.847,VALID,26.0226,VALID,19,VALID,0.855078,
2008-08-04, 07:06:04,VALID,1005.99,VALID,0,VALID,85.8554,VALID,100.161,VALID,26.0206,VALID,71,VALID,0.665625,
2008-08-04, 07:07:04,VALID,1006.05,VALID,0,VALID,86.1758,VALID,131.034,VALID,26.081,VALID,14,VALID,0.526172,
2008-08-04, 07:08:04,VALID,1006.04,VALID,0,VALID,85.3901,VALID,141.291,VALID,26.12,VALID,21,VALID,1.5918,
2008-08-04, 07:09:04,VALID,1006.06,VALID,0,VALID,85.3824,VALID,128.519,VALID,26.2174,VALID,34,VALID,0.729297,
2008-08-04, 07:10:04,VALID,1006.06,VALID,0,VALID,84.589,VALID,132.14,VALID,26.2544,VALID,56,VALID,1.92305,
2008-08-04, 07:11:04,VALID,1006.09,VALID,0,VALID,84.4212,VALID,141.19,VALID,26.3128,VALID,43,VALID,1.11133,
2008-08-04, 07:12:04,VALID,1006.15,VALID,0,VALID,84.2991,VALID,169.147,VALID,26.3927,VALID,76,VALID,0.735937,
2008-08-04, 07:13:04,VALID,1006.19,VALID,0,VALID,84.055,VALID,169.549,VALID,26.4707,VALID,54,VALID,0.713281,
2008-08-04, 07:14:04,VALID,1006.19,VALID,0,VALID,83.9635,VALID,181.315,VALID,26.5291,VALID,46,VALID,0.470313,
2008-08-04, 07:15:04,VALID,1006.22,VALID,0,VALID,83.1243,VALID,192.779,VALID,26.5876,VALID,71,VALID,1.18789,
2008-08-04, 07:16:04,VALID,1006.23,VALID,0,VALID,83.8643,VALID,211.685,VALID,26.6655,VALID,54,VALID,0.559766,
2008-08-04, 07:17:04,VALID,1006.26,VALID,0,VALID,83.6659,VALID,211.685,VALID,26.7629,VALID,63,VALID,0.696484,
2008-08-04, 07:18:04,VALID,1006.29,VALID,0,VALID,82.369,VALID,200.02,VALID,26.8408,VALID,78,VALID,1.31523,
2008-08-04, 07:19:04,VALID,1006.32,VALID,0,VALID,83.0632,VALID,200.824,VALID,26.8798,VALID,32,VALID,0.462891,
2008-08-04, 07:20:04,VALID,1006.32,VALID,0,VALID,82.6589,VALID,186.544,VALID,26.9362,VALID,79,VALID,0.767969,
2008-08-04, 07:21:04,VALID,1006.33,VALID,0,VALID,82.1478,VALID,162.912,VALID,26.9772,VALID,53,VALID,1.16484,
2008-08-04, 07:22:04,VALID,1006.32,VALID,0,VALID,82.2927,VALID,180.611,VALID,27.0377,VALID,19,VALID,0.939844,
2008-08-04, 07:23:04,VALID,1006.34,VALID,0,VALID,81.568,VALID,209.271,VALID,27.0767,VALID,73,VALID,1.00977,
2008-08-04, 07:24:04,VALID,1006.35,VALID,0,VALID,81.4688,VALID,225.362,VALID,27.0962,VALID,10,VALID,1.38125,
2008-08-04, 07:25:04,VALID,1006.35,VALID,0,VALID,81.9113,VALID,221.54,VALID,27.1136,VALID,20,VALID,0.798437,
2008-08-04, 07:26:04,VALID,1006.35,VALID,0,VALID,81.568,VALID,225.261,VALID,27.1136,VALID,32,VALID,0.743359,
2008-08-04, 07:27:04,VALID,1006.35,VALID,0,VALID,82.6589,VALID,234.312,VALID,27.2131,VALID,32,VALID,0.425391,
2008-08-04, 07:28:04,VALID,1006.36,VALID,0,VALID,81.8197,VALID,224.054,VALID,27.25,VALID,50,VALID,0.99375,
2008-08-04, 07:29:04,VALID,1006.38,VALID,0,VALID,81.2934,VALID,198.21,VALID,27.289,VALID,29,VALID,0.733203,
2008-08-04, 07:30:04,VALID,1006.43,VALID,0,VALID,81.4917,VALID,194.489,VALID,27.3496,VALID,89,VALID,0.639063,
2008-08-04, 07:31:04,VALID,1006.41,VALID,0,VALID,81.3925,VALID,209.573,VALID,27.4275,VALID,52,VALID,0.391797,
2008-08-04, 07:32:04,VALID,1006.4,VALID,0,VALID,80.1948,VALID,206.355,VALID,27.3865,VALID,29,VALID,0.909375,
2008-08-04, 07:33:04,VALID,1006.38,VALID,0,VALID,80.2177,VALID,192.98,VALID,27.4059,VALID,34,VALID,0.781641,
2008-08-04, 07:34:04,VALID,1006.35,VALID,0,VALID,80.3169,VALID,169.348,VALID,27.328,VALID,84,VALID,0.9875,
2008-08-04, 07:35:04,VALID,1006.36,VALID,0,VALID,80.6602,VALID,166.029,VALID,27.3064,VALID,49,VALID,0.542969,
2008-08-04, 07:36:04,VALID,1006.34,VALID,0,VALID,80.6449,VALID,165.426,VALID,27.328,VALID,60,VALID,0.267188,
2008-08-04, 07:37:04,VALID,1006.38,VALID,0,VALID,80.5991,VALID,197.908,VALID,27.3844,VALID,351,VALID,0.716797,
2008-08-04, 07:38:04,VALID,1006.38,VALID,0,VALID,80.5076,VALID,218.423,VALID,27.4428,VALID,41,VALID,0.340234,
2008-08-04, 07:39:04,VALID,1006.39,VALID,0,VALID,79.943,VALID,198.411,VALID,27.5034,VALID,117,VALID,0.737109,
2008-08-04, 07:40:04,VALID,1006.41,VALID,0,VALID,80.7975,VALID,229.887,VALID,27.4644,VALID,58,VALID,0.585547,
2008-08-04, 07:41:04,VALID,1006.39,VALID,0,VALID,80.5228,VALID,267.9,VALID,27.5424,VALID,352,VALID,0.706641,
2008-08-04, 07:42:04,VALID,1006.41,VALID,0,VALID,79.7065,VALID,289.018,VALID,27.6203,VALID,5,VALID,0.635547,
2008-08-04, 07:43:04,VALID,1006.44,VALID,0,VALID,79.2488,VALID,302.393,VALID,27.6593,VALID,13,VALID,0.874219,
2008-08-04, 07:44:04,VALID,1006.46,VALID,0,VALID,79.8286,VALID,289.42,VALID,27.7588,VALID,5,VALID,0.822266,
2008-08-04, 07:45:04,VALID,1006.51,VALID,0,VALID,79.676,VALID,291.13,VALID,27.7978,VALID,37,VALID,0.522266,
2008-08-04, 07:46:04,VALID,1006.55,VALID,0,VALID,80.2329,VALID,288.113,VALID,27.9127,VALID,24,VALID,0.645312,
2008-08-04, 07:47:04,VALID,1006.58,VALID,0,VALID,78.6309,VALID,310.941,VALID,28.0686,VALID,27,VALID,0.440234,
2008-08-04, 07:48:04,VALID,1006.57,VALID,0,VALID,78.0968,VALID,304.002,VALID,27.9906,VALID,89,VALID,0.618359,
2008-08-04, 07:49:04,VALID,1006.6,VALID,0,VALID,78.2418,VALID,319.891,VALID,28.0707,VALID,67,VALID,0.435547,
2008-08-04, 07:50:04,VALID,1006.65,VALID,0,VALID,77.2729,VALID,298.069,VALID,28.0902,VALID,127,VALID,1.51797,
2008-08-04, 07:51:04,VALID,1006.68,VALID,0,VALID,77.7688,VALID,283.487,VALID,27.9927,VALID,68,VALID,1.55,
2008-08-04, 07:52:04,VALID,1006.65,VALID,0,VALID,77.4026,VALID,303.901,VALID,27.9927,VALID,68,VALID,1.32813,
2008-08-04, 07:53:04,VALID,1006.67,VALID,0,VALID,77.5552,VALID,329.143,VALID,27.9733,VALID,25,VALID,0.815234,
2008-08-04, 07:54:04,VALID,1006.72,VALID,0,VALID,78.7529,VALID,368.262,VALID,28.0728,VALID,55,VALID,0.492188,
2008-08-04, 07:55:04,VALID,1006.71,VALID,0,VALID,78.1197,VALID,369.669,VALID,28.1271,VALID,111,VALID,0.767578,
2008-08-04, 07:56:04,VALID,1006.7,VALID,0,VALID,76.9144,VALID,357.501,VALID,28.2656,VALID,72,VALID,0.781641,
2008-08-04, 07:57:04,VALID,1006.69,VALID,0,VALID,75.77,VALID,311.846,VALID,28.3025,VALID,92,VALID,1.07617,
2008-08-04, 07:58:04,VALID,1006.7,VALID,0,VALID,75.648,VALID,290.929,VALID,28.283,VALID,27,VALID,1.01992,
2008-08-04, 07:59:04,VALID,1006.64,VALID,0,VALID,76.0599,VALID,282.884,VALID,28.322,VALID,79,VALID,1.08164,
2008-08-04, 08:00:04,VALID,1006.66,VALID,0,VALID,75.3962,VALID,337.892,VALID,28.2462,VALID,44,VALID,1.58945,
2008-08-04, 08:01:04,VALID,1006.65,VALID,0,VALID,76.7389,VALID,367.859,VALID,28.2635,VALID,70,VALID,0.576172,
2008-08-04, 08:02:04,VALID,1006.63,VALID,0,VALID,76.4414,VALID,346.138,VALID,28.3241,VALID,25,VALID,0.887109,
2008-08-04, 08:03:04,VALID,1006.63,VALID,0,VALID,76.4414,VALID,359.01,VALID,28.4,VALID,58,VALID,0.399609,
2008-08-04, 08:04:04,VALID,1006.62,VALID,0,VALID,76.037,VALID,355.892,VALID,28.4779,VALID,96,VALID,0.398828,
2008-08-04, 08:05:04,VALID,1006.64,VALID,0,VALID,75.1368,VALID,325.924,VALID,28.5776,VALID,59,VALID,1.19531,
2008-08-04, 08:06:04,VALID,1006.67,VALID,0,VALID,76.0676,VALID,364.943,VALID,28.3631,VALID,39,VALID,1.26758,
2008-08-04, 08:07:04,VALID,1006.61,VALID,0,VALID,75.0987,VALID,349.255,VALID,28.3241,VALID,95,VALID,1.31523,
2008-08-04, 08:08:04,VALID,1006.65,VALID,0,VALID,74.7478,VALID,356.395,VALID,28.3046,VALID,89,VALID,2.34727,
2008-08-04, 08:09:04,VALID,1006.59,VALID,0,VALID,74.7707,VALID,411.805,VALID,28.244,VALID,68,VALID,1.06719,
2008-08-04, 08:10:04,VALID,1006.59,VALID,0,VALID,75.0987,VALID,428.096,VALID,28.3415,VALID,50,VALID,0.766406,
2008-08-04, 08:11:04,VALID,1006.6,VALID,0,VALID,76.0599,VALID,451.93,VALID,28.4216,VALID,81,VALID,1.00781,
2008-08-04, 08:12:04,VALID,1006.55,VALID,0,VALID,75.2284,VALID,458.366,VALID,28.4584,VALID,59,VALID,1.26289,
2008-08-04, 08:13:04,VALID,1006.49,VALID,0,VALID,75.381,VALID,435.035,VALID,28.4801,VALID,24,VALID,2.25078,
2008-08-04, 08:14:04,VALID,1006.47,VALID,0,VALID,75.1368,VALID,444.388,VALID,28.4606,VALID,68,VALID,1.47969,
2008-08-04, 08:15:04,VALID,1006.47,VALID,0,VALID,74.7249,VALID,492.055,VALID,28.4606,VALID,75,VALID,1.78945,
2008-08-04, 08:16:04,VALID,1006.45,VALID,0,VALID,75.5793,VALID,496.781,VALID,28.5386,VALID,91,VALID,1.76719,
2008-08-04, 08:17:04,VALID,1006.4,VALID,0,VALID,74.3206,VALID,501.809,VALID,28.6361,VALID,72,VALID,1.13086,
2008-08-04, 08:18:04,VALID,1006.39,VALID,0,VALID,74.0841,VALID,509.05,VALID,28.7119,VALID,10,VALID,1.47539,
2008-08-04, 08:19:04,VALID,1006.38,VALID,0,VALID,75.175,VALID,477.473,VALID,28.8288,VALID,40,VALID,0.665625,
2008-08-04, 08:20:04,VALID,1006.39,VALID,0,VALID,75.4039,VALID,412.107,VALID,28.9458,VALID,40,VALID,1.53516,
2008-08-04, 08:21:04,VALID,1006.39,VALID,0,VALID,76.6397,VALID,379.927,VALID,28.9458,VALID,35,VALID,0.708594,
2008-08-04, 08:22:04,VALID,1006.38,VALID,0,VALID,73.5577,VALID,321.299,VALID,28.9848,VALID,35,VALID,0.489453,
2008-08-04, 08:23:04,VALID,1006.41,VALID,0,VALID,73.7713,VALID,277.453,VALID,28.9263,VALID,60,VALID,1.34727,
2008-08-04, 08:24:04,VALID,1006.42,VALID,0,VALID,73.161,VALID,276.749,VALID,28.831,VALID,79,VALID,2.10586,
2008-08-04, 08:25:04,VALID,1006.4,VALID,0,VALID,73.962,VALID,288.415,VALID,28.6339,VALID,79,VALID,1.76172,
2008-08-04, 08:26:04,VALID,1006.41,VALID,0,VALID,72.9855,VALID,343.624,VALID,28.5754,VALID,19,VALID,1.38281,
2008-08-04, 08:27:04,VALID,1006.38,VALID,0,VALID,74.4884,VALID,281.476,VALID,28.4389,VALID,122,VALID,2.79102,
2008-08-04, 08:28:04,VALID,1006.44,VALID,0,VALID,74.374,VALID,300.985,VALID,28.4216,VALID,96,VALID,1.01289,
2008-08-04, 08:29:04,VALID,1006.47,VALID,0,VALID,72.9245,VALID,322.606,VALID,28.3631,VALID,76,VALID,1.30977,
2008-08-04, 08:30:04,VALID,1006.52,VALID,0,VALID,75.114,VALID,305.108,VALID,28.3631,VALID,24,VALID,2.09102,
2008-08-04, 08:31:04,VALID,1006.47,VALID,0,VALID,75.6022,VALID,262.57,VALID,28.4216,VALID,111,VALID,0.605859,
2008-08-04, 08:32:04,VALID,1006.5,VALID,0,VALID,75.1826,VALID,249.195,VALID,28.4823,VALID,102,VALID,1.33438,
2008-08-04, 08:33:04,VALID,1006.47,VALID,0,VALID,75.5869,VALID,232.602,VALID,28.3805,VALID,108,VALID,1.64375,
2008-08-04, 08:34:04,VALID,1006.45,VALID,0,VALID,75.5488,VALID,233.205,VALID,28.2809,VALID,73,VALID,0.79375,
2008-08-04, 08:35:04,VALID,1006.44,VALID,0,VALID,75.3504,VALID,230.893,VALID,28.3003,VALID,17,VALID,0.821875,
2008-08-04, 08:36:04,VALID,1006.42,VALID,0,VALID,76.1439,VALID,246.078,VALID,28.3415,VALID,44,VALID,0.269141,
2008-08-04, 08:37:04,VALID,1006.39,VALID,0,VALID,75.2131,VALID,254.022,VALID,28.3588,VALID,40,VALID,0.892578,
2008-08-04, 08:38:04,VALID,1006.39,VALID,0,VALID,75.6404,VALID,279.967,VALID,28.3415,VALID,63,VALID,0.934766,
2008-08-04, 08:39:04,VALID,1006.36,VALID,0,VALID,74.5418,VALID,326.126,VALID,28.2809,VALID,74,VALID,1.37383,
2008-08-04, 08:40:04,VALID,1006.39,VALID,0,VALID,77.0975,VALID,312.349,VALID,28.3415,VALID,359,VALID,1.10156,
2008-08-04, 08:41:04,VALID,1006.38,VALID,0,VALID,75.2971,VALID,292.035,VALID,28.3588,VALID,85,VALID,0.973047,
2008-08-04, 08:42:04,VALID,1006.4,VALID,0,VALID,73.8857,VALID,294.75,VALID,28.4194,VALID,13,VALID,1.92148,
2008-08-04, 08:43:04,VALID,1006.45,VALID,0,VALID,74.7478,VALID,306.516,VALID,28.3783,VALID,26,VALID,1.025,
2008-08-04, 08:44:04,VALID,1006.42,VALID,0,VALID,74.8775,VALID,295.957,VALID,28.4,VALID,54,VALID,0.7125,
2008-08-04, 08:45:04,VALID,1006.4,VALID,0,VALID,74.9919,VALID,290.526,VALID,28.3415,VALID,15,VALID,2.12109,
2008-08-04, 08:46:04,VALID,1006.45,VALID,0,VALID,75.3428,VALID,280.772,VALID,28.3415,VALID,360,VALID,1.02656,
2008-08-04, 08:47:04,VALID,1006.47,VALID,0,VALID,75.3504,VALID,287.912,VALID,28.3393,VALID,27,VALID,1.33633,
2008-08-04, 08:48:04,VALID,1006.45,VALID,0,VALID,74.908,VALID,287.208,VALID,28.361,VALID,66,VALID,1.42305,
2008-08-04, 08:49:04,VALID,1006.45,VALID,0,VALID,75.2513,VALID,301.588,VALID,28.3826,VALID,19,VALID,1.90469,
2008-08-04, 08:50:04,VALID,1006.47,VALID,0,VALID,75.3352,VALID,330.45,VALID,28.3631,VALID,66,VALID,0.992578,
2008-08-04, 08:51:04,VALID,1006.51,VALID,0,VALID,75.9455,VALID,370.876,VALID,28.4,VALID,84,VALID,0.932813,
2008-08-04, 08:52:04,VALID,1006.5,VALID,0,VALID,76.0142,VALID,446.801,VALID,28.4389,VALID,41,VALID,1.32969,
2008-08-04, 08:53:04,VALID,1006.49,VALID,0,VALID,75.1826,VALID,507.441,VALID,28.5364,VALID,85,VALID,1.13906,
2008-08-04, 08:54:04,VALID,1006.45,VALID,0,VALID,74.4579,VALID,474.355,VALID,28.6556,VALID,39,VALID,1.26797,
2008-08-04, 08:55:04,VALID,1006.44,VALID,0,VALID,73.6492,VALID,557.32,VALID,28.792,VALID,23,VALID,1.30898,
2008-08-04, 08:56:04,VALID,1006.44,VALID,0,VALID,72.7261,VALID,504.021,VALID,28.8093,VALID,78,VALID,3.20313,
2008-08-04, 08:57:04,VALID,1006.38,VALID,0,VALID,73.756,VALID,647.625,VALID,28.8093,VALID,77,VALID,0.925,
2008-08-04, 08:58:04,VALID,1006.38,VALID,0,VALID,73.428,VALID,653.056,VALID,28.8288,VALID,73,VALID,1.10391,
2008-08-04, 08:59:04,VALID,1006.4,VALID,0,VALID,72.9397,VALID,605.691,VALID,28.9653,VALID,23,VALID,1.14453,
2008-08-04, 09:00:04,VALID,1006.41,VALID,0,VALID,71.9403,VALID,556.415,VALID,29.0433,VALID,29,VALID,1.23789,
2008-08-04, 09:01:04,VALID,1006.37,VALID,0,VALID,72.6041,VALID,549.878,VALID,29.0238,VALID,20,VALID,3.32344,
2008-08-04, 09:02:04,VALID,1006.42,VALID,0,VALID,72.337,VALID,536.604,VALID,29.0238,VALID,26,VALID,1.51133,
2008-08-04, 09:03:04,VALID,1006.41,VALID,0,VALID,72.6575,VALID,597.847,VALID,29.0823,VALID,32,VALID,1.86328,
2008-08-04, 09:04:04,VALID,1006.42,VALID,0,VALID,72.0777,VALID,635.859,VALID,29.1798,VALID,38,VALID,0.960156,
2008-08-04, 09:05:04,VALID,1006.44,VALID,0,VALID,72.8177,VALID,613.434,VALID,29.2795,VALID,39,VALID,1.04141,
2008-08-04, 09:06:04,VALID,1006.46,VALID,0,VALID,70.5519,VALID,402.553,VALID,29.3965,VALID,121,VALID,1.4832,
2008-08-04, 09:07:04,VALID,1006.46,VALID,0,VALID,71.4292,VALID,337.188,VALID,29.299,VALID,100,VALID,1.0332,
2008-08-04, 09:08:04,VALID,1006.48,VALID,0,VALID,70.8265,VALID,342.115,VALID,29.2188,VALID,11,VALID,1.57031,
2008-08-04, 09:09:04,VALID,1006.46,VALID,0,VALID,72.9855,VALID,554.404,VALID,29.1798,VALID,61,VALID,0.571484,
2008-08-04, 09:10:04,VALID,1006.47,VALID,0,VALID,71.4826,VALID,241.954,VALID,29.1603,VALID,41,VALID,0.971875,
2008-08-04, 09:11:04,VALID,1006.45,VALID,0,VALID,71.8259,VALID,211.484,VALID,29.0628,VALID,32,VALID,1.24375,
2008-08-04, 09:12:04,VALID,1006.47,VALID,0,VALID,72.6117,VALID,202.735,VALID,29.0065,VALID,58,VALID,1.17422,
2008-08-04, 09:13:04,VALID,1006.47,VALID,0,VALID,71.8488,VALID,211.886,VALID,28.8873,VALID,18,VALID,1.31406,
2008-08-04, 09:14:04,VALID,1006.47,VALID,0,VALID,73.2449,VALID,242.256,VALID,28.8505,VALID,45,VALID,0.672656,
2008-08-04, 09:15:04,VALID,1006.45,VALID,0,VALID,72.8177,VALID,268.503,VALID,28.8678,VALID,98,VALID,0.720312,
2008-08-04, 09:16:04,VALID,1006.43,VALID,0,VALID,72.2226,VALID,226.066,VALID,28.8678,VALID,143,VALID,0.399609,
2008-08-04, 09:17:04,VALID,1006.41,VALID,0,VALID,73.5806,VALID,217.317,VALID,28.7509,VALID,125,VALID,1.4293,
2008-08-04, 09:18:04,VALID,1006.43,VALID,0,VALID,73.8323,VALID,232.401,VALID,28.6534,VALID,102,VALID,1.46328,
2008-08-04, 09:19:04,VALID,1006.46,VALID,0,VALID,73.3898,VALID,259.654,VALID,28.6166,VALID,120,VALID,2.07266,
2008-08-04, 09:20:04,VALID,1006.46,VALID,0,VALID,73.9544,VALID,298.773,VALID,28.6361,VALID,126,VALID,2.21797,
2008-08-04, 09:21:04,VALID,1006.46,VALID,0,VALID,75.3199,VALID,336.484,VALID,28.6144,VALID,108,VALID,1.86992,
2008-08-04, 09:22:04,VALID,1006.44,VALID,0,VALID,74.5342,VALID,304.706,VALID,28.6924,VALID,57,VALID,0.638281,
2008-08-04, 09:23:04,VALID,1006.39,VALID,0,VALID,74.0535,VALID,325.824,VALID,28.7898,VALID,71,VALID,1.10195,
2008-08-04, 09:24:04,VALID,1006.37,VALID,0,VALID,74.3968,VALID,428.298,VALID,28.8895,VALID,49,VALID,0.46875,
2008-08-04, 09:25:04,VALID,1006.35,VALID,0,VALID,70.8418,VALID,490.948,VALID,29.0043,VALID,100,VALID,0.969141,
2008-08-04, 09:26:04,VALID,1006.37,VALID,0,VALID,72.5201,VALID,423.37,VALID,29.182,VALID,49,VALID,0.360547,
2008-08-04, 09:27:04,VALID,1006.36,VALID,0,VALID,70.7579,VALID,413.917,VALID,29.2405,VALID,86,VALID,1.33711,
2008-08-04, 09:28:04,VALID,1006.37,VALID,0,VALID,71.1698,VALID,326.528,VALID,29.1798,VALID,86,VALID,1.00039,
2008-08-04, 09:29:04,VALID,1006.34,VALID,0,VALID,70.7808,VALID,302.393,VALID,29.1603,VALID,70,VALID,0.952344,
2008-08-04, 09:30:04,VALID,1006.38,VALID,0,VALID,72.4438,VALID,314.259,VALID,29.1603,VALID,54,VALID,0.752344,
2008-08-04, 09:31:04,VALID,1006.36,VALID,0,VALID,72.2379,VALID,409.995,VALID,29.2188,VALID,85,VALID,0.514453,
2008-08-04, 09:32:04,VALID,1006.37,VALID,0,VALID,71.9175,VALID,438.052,VALID,29.2773,VALID,61,VALID,1.32656,
2008-08-04, 09:33:04,VALID,1006.39,VALID,0,VALID,73.016,VALID,398.933,VALID,29.3163,VALID,103,VALID,0.789063,
2008-08-04, 09:34:04,VALID,1006.4,VALID,0,VALID,71.2919,VALID,423.672,VALID,29.2795,VALID,101,VALID,0.980469,
2008-08-04, 09:35:04,VALID,1006.41,VALID,0,VALID,71.8259,VALID,384.452,VALID,29.1993,VALID,82,VALID,0.925781,
2008-08-04, 09:36:04,VALID,1006.42,VALID,0,VALID,72.2608,VALID,341.612,VALID,29.2188,VALID,101,VALID,0.522656,
2008-08-04, 09:37:04,VALID,1006.37,VALID,0,VALID,72.07,VALID,293.744,VALID,29.1993,VALID,15,VALID,3.39727,
2008-08-04, 09:38:04,VALID,1006.39,VALID,0,VALID,73.0542,VALID,275.341,VALID,29.1408,VALID,15,VALID,2.17148,
2008-08-04, 09:39:04,VALID,1006.39,VALID,0,VALID,72.9168,VALID,283.286,VALID,29.104,VALID,90,VALID,0.372656,
2008-08-04, 09:40:04,VALID,1006.39,VALID,0,VALID,72.81,VALID,281.275,VALID,29.0628,VALID,16,VALID,1.54062,
2008-08-04, 09:41:04,VALID,1006.4,VALID,0,VALID,73.1686,VALID,259.855,VALID,29.065,VALID,15,VALID,1.16445,
2008-08-04, 09:42:04,VALID,1006.41,VALID,0,VALID,73.7026,VALID,242.457,VALID,29.0628,VALID,15,VALID,0.627734,
2008-08-04, 09:43:04,VALID,1006.42,VALID,0,VALID,72.81,VALID,230.289,VALID,28.9653,VALID,101,VALID,1.88711,
2008-08-04, 09:44:04,VALID,1006.45,VALID,0,VALID,73.7026,VALID,230.49,VALID,28.8873,VALID,6,VALID,1.18125,
2008-08-04, 09:45:04,VALID,1006.44,VALID,0,VALID,74.5342,VALID,255.43,VALID,28.8895,VALID,50,VALID,1.64844,
2008-08-04, 09:46:04,VALID,1006.45,VALID,0,VALID,75.77,VALID,305.711,VALID,28.8895,VALID,50,VALID,0.566406,
2008-08-04, 09:47:04,VALID,1006.44,VALID,0,VALID,73.6492,VALID,450.12,VALID,28.87,VALID,78,VALID,0.871094,
2008-08-04, 09:48:04,VALID,1006.46,VALID,0,VALID,74.641,VALID,424.677,VALID,28.9068,VALID,106,VALID,1.18477,
2008-08-04, 09:49:04,VALID,1006.47,VALID,0,VALID,74.641,VALID,322.204,VALID,28.9458,VALID,40,VALID,1.03281,
2008-08-04, 09:50:04,VALID,1006.43,VALID,0,VALID,72.7414,VALID,325.924,VALID,28.9458,VALID,19,VALID,2.26367,
2008-08-04, 09:51:04,VALID,1006.42,VALID,0,VALID,73.5729,VALID,358.708,VALID,28.9458,VALID,3,VALID,1.51484,
2008-08-04, 09:52:04,VALID,1006.42,VALID,0,VALID,74.9232,VALID,444.991,VALID,29.0043,VALID,85,VALID,0.891016,
2008-08-04, 09:53:04,VALID,1006.43,VALID,0,VALID,74.0688,VALID,417.537,VALID,29.0628,VALID,79,VALID,0.830469,
2008-08-04, 09:54:04,VALID,1006.41,VALID,0,VALID,72.7566,VALID,368.362,VALID,29.1235,VALID,124,VALID,1.59766,
2008-08-04, 09:55:04,VALID,1006.4,VALID,0,VALID,73.0313,VALID,349.858,VALID,29.1018,VALID,114,VALID,0.932422,
2008-08-04, 09:56:04,VALID,1006.4,VALID,0,VALID,72.7719,VALID,311.946,VALID,29.1018,VALID,87,VALID,1.30078,
2008-08-04, 09:57:04,VALID,1006.38,VALID,0,VALID,71.8183,VALID,283.688,VALID,29.0845,VALID,105,VALID,1.58086,
2008-08-04, 09:58:04,VALID,1006.38,VALID,0,VALID,72.1616,VALID,262.369,VALID,28.9675,VALID,116,VALID,1.21758,
2008-08-04, 09:59:04,VALID,1006.38,VALID,0,VALID,72.7566,VALID,249.999,VALID,28.9675,VALID,10,VALID,1.52305,
2008-08-04, 10:00:04,VALID,1006.39,VALID,0,VALID,73.1762,VALID,241.251,VALID,28.948,VALID,74,VALID,0.974609,
2008-08-04, 10:01:04,VALID,1006.4,VALID,0,VALID,73.6034,VALID,246.078,VALID,28.8678,VALID,66,VALID,2.37734,
2008-08-04, 10:02:04,VALID,1006.39,VALID,0,VALID,73.55,VALID,253.016,VALID,28.7509,VALID,28,VALID,1.89414,
2008-08-04, 10:03:04,VALID,1006.37,VALID,0,VALID,73.3669,VALID,272.626,VALID,28.7119,VALID,25,VALID,1.66875,
2008-08-04, 10:04:04,VALID,1006.38,VALID,0,VALID,73.5806,VALID,261.765,VALID,28.714,VALID,77,VALID,1.19922,
2008-08-04, 10:05:04,VALID,1006.37,VALID,0,VALID,74.7783,VALID,239.943,VALID,28.6945,VALID,17,VALID,1.25937,
2008-08-04, 10:06:04,VALID,1006.38,VALID,0,VALID,73.8704,VALID,225.864,VALID,28.6945,VALID,70,VALID,1.55469,
2008-08-04, 10:07:04,VALID,1006.36,VALID,0,VALID,74.374,VALID,223.35,VALID,28.6144,VALID,107,VALID,1.0543,
2008-08-04, 10:08:04,VALID,1006.38,VALID,0,VALID,74.702,VALID,233.809,VALID,28.5581,VALID,97,VALID,1.39648,
2008-08-04, 10:09:04,VALID,1006.36,VALID,0,VALID,74.9919,VALID,240.949,VALID,28.5364,VALID,108,VALID,1.86758,